Time,TemperatureF,DewpointF,PressureIn,WindDirection,WindDirectionDegrees,WindSpeedMPH,WindSpeedGustMPH,Humidity,HourlyPrecipIn,Conditions,Clouds,dailyrainin,SoftwareType,DateUTC
2013-03-27 00:00:00,34.6,27.0,30.12,NNW,338,1.8,2.5,74,0.00,,,0.00,WUHU216HW,2013-03-27 04:00:00,
2013-03-27 00:05:00,34.6,27.0,30.12,WNW,293,1.1,3.1,74,0.00,,,0.00,WUHU216HW,2013-03-27 04:05:00,
2013-03-27 00:10:00,34.6,27.4,30.12,NW,315,1.1,3.1,75,0.00,,,0.00,WUHU216HW,2013-03-27 04:10:00,
2013-03-27 00:15:00,34.6,27.4,30.12,NW,315,0.7,2.7,75,0.00,,,0.00,WUHU216HW,2013-03-27 04:15:00,
2013-03-27 00:20:00,34.6,27.4,30.12,NW,315,1.1,2.7,75,0.00,,,0.00,WUHU216HW,2013-03-27 04:20:00,
2013-03-27 00:25:00,34.4,27.2,30.12,NW,315,1.3,2.5,75,0.00,,,0.00,WUHU216HW,2013-03-27 04:25:00,
2013-03-27 00:30:00,34.4,27.6,30.12,NW,315,0.9,3.4,76,0.00,,,0.00,WUHU216HW,2013-03-27 04:30:00,
2013-03-27 00:35:00,34.4,27.6,30.12,West,270,1.1,3.4,76,0.00,,,0.00,WUHU216HW,2013-03-27 04:35:00,
2013-03-27 00:40:00,34.4,27.6,30.12,NW,315,1.1,3.1,76,0.00,,,0.00,WUHU216HW,2013-03-27 04:40:00,
2013-03-27 00:45:00,34.4,27.6,30.12,West,270,0.2,3.1,76,0.00,,,0.00,WUHU216HW,2013-03-27 04:45:00,
2013-03-27 00:50:00,34.4,27.6,30.12,West,270,1.8,3.1,76,0.00,,,0.00,WUHU216HW,2013-03-27 04:50:00,
2013-03-27 00:55:00,34.4,27.2,30.12,West,270,0.4,2.9,75,0.00,,,0.00,WUHU216HW,2013-03-27 04:55:00,
2013-03-27 01:00:00,34.4,27.2,30.12,WSW,248,1.8,3.4,75,0.00,,,0.00,WUHU216HW,2013-03-27 05:00:00,
2013-03-27 01:05:00,34.4,26.8,30.12,West,270,0.7,3.4,74,0.00,,,0.00,WUHU216HW,2013-03-27 05:05:00,
2013-03-27 01:10:00,34.4,26.8,30.12,West,270,2.0,2.2,74,0.00,,,0.00,WUHU216HW,2013-03-27 05:10:00,
2013-03-27 01:15:00,34.4,26.8,30.12,WSW,248,1.8,2.9,74,0.00,,,0.00,WUHU216HW,2013-03-27 05:15:00,
2013-03-27 01:20:00,34.4,26.8,30.12,NNW,338,4.0,4.0,74,0.00,,,0.00,WUHU216HW,2013-03-27 05:20:00,
2013-03-27 01:25:00,34.4,26.6,30.12,WNW,293,0.9,4.0,73,0.00,,,0.00,WUHU216HW,2013-03-27 05:25:00,
2013-03-27 01:30:00,34.2,26.6,30.12,WNW,293,0.9,3.4,74,0.00,,,0.00,WUHU216HW,2013-03-27 05:30:00,
2013-03-27 01:35:00,34.2,26.6,30.12,NNW,338,0.4,2.9,74,0.00,,,0.00,WUHU216HW,2013-03-27 05:35:00,
2013-03-27 01:40:00,34.2,26.6,30.12,WNW,293,0.4,2.9,74,0.00,,,0.00,WUHU216HW,2013-03-27 05:40:00,
2013-03-27 01:45:00,34.2,26.6,30.12,NW,315,2.5,3.1,74,0.00,,,0.00,WUHU216HW,2013-03-27 05:45:00,
2013-03-27 01:50:00,34.2,26.6,30.12,West,270,1.1,3.1,74,0.00,,,0.00,WUHU216HW,2013-03-27 05:50:00,
2013-03-27 01:55:00,34.2,26.6,30.12,WNW,293,1.1,2.5,74,0.00,,,0.00,WUHU216HW,2013-03-27 05:55:00,
2013-03-27 02:00:00,34.2,26.6,30.12,WNW,293,1.3,2.5,74,0.00,,,0.00,WUHU216HW,2013-03-27 06:00:00,
2013-03-27 02:05:00,34.0,26.5,30.12,WNW,293,0.4,2.5,74,0.00,,,0.00,WUHU216HW,2013-03-27 06:05:00,
2013-03-27 02:10:00,34.0,26.5,30.12,NW,315,0.9,2.5,74,0.00,,,0.00,WUHU216HW,2013-03-27 06:10:00,
2013-03-27 02:15:00,34.0,26.5,30.12,WNW,293,1.1,2.5,74,0.00,,,0.00,WUHU216HW,2013-03-27 06:15:00,
2013-03-27 02:20:00,33.8,26.3,30.12,NW,315,2.7,2.7,74,0.00,,,0.00,WUHU216HW,2013-03-27 06:20:00,
2013-03-27 02:25:00,33.8,26.3,30.12,West,270,1.1,2.7,74,0.00,,,0.00,WUHU216HW,2013-03-27 06:25:00,
2013-03-27 02:30:00,33.7,26.2,30.12,NW,315,1.1,2.7,74,0.00,,,0.00,WUHU216HW,2013-03-27 06:30:00,
2013-03-27 02:35:00,33.7,26.2,30.13,NW,315,1.6,1.8,74,0.00,,,0.00,WUHU216HW,2013-03-27 06:35:00,
2013-03-27 02:40:00,33.5,26.0,30.13,WNW,293,0.4,1.8,74,0.00,,,0.00,WUHU216HW,2013-03-27 06:40:00,
2013-03-27 02:45:00,33.5,26.0,30.13,NW,315,1.1,1.3,74,0.00,,,0.00,WUHU216HW,2013-03-27 06:45:00,
2013-03-27 02:50:00,33.3,25.8,30.12,NW,315,1.3,2.2,74,0.00,,,0.00,WUHU216HW,2013-03-27 06:50:00,
2013-03-27 02:55:00,33.3,25.8,30.13,NNW,338,1.3,3.1,74,0.00,,,0.00,WUHU216HW,2013-03-27 06:55:00,
2013-03-27 03:00:00,33.1,25.7,30.13,NW,315,1.3,3.1,74,0.00,,,0.00,WUHU216HW,2013-03-27 07:00:00,
2013-03-27 03:05:00,32.9,25.8,30.13,NW,315,0.7,2.5,75,0.00,,,0.00,WUHU216HW,2013-03-27 07:05:00,
2013-03-27 03:10:00,32.8,25.7,30.13,NW,315,0.7,2.5,75,0.00,,,0.00,WUHU216HW,2013-03-27 07:10:00,
2013-03-27 03:15:00,32.8,25.7,30.13,NW,315,0.9,1.6,75,0.00,,,0.00,WUHU216HW,2013-03-27 07:15:00,
2013-03-27 03:20:00,32.8,25.7,30.13,NW,315,0.9,1.8,75,0.00,,,0.00,WUHU216HW,2013-03-27 07:20:00,
2013-03-27 03:25:00,32.6,25.2,30.13,WNW,293,1.1,1.8,74,0.00,,,0.00,WUHU216HW,2013-03-27 07:25:00,
2013-03-27 03:30:00,32.4,25.4,30.12,WNW,293,0.4,2.2,75,0.00,,,0.00,WUHU216HW,2013-03-27 07:30:00,
2013-03-27 03:35:00,32.4,25.4,30.12,NW,315,1.1,2.5,75,0.00,,,0.00,WUHU216HW,2013-03-27 07:35:00,
2013-03-27 03:40:00,32.2,25.2,30.12,WNW,293,0.7,2.5,75,0.00,,,0.00,WUHU216HW,2013-03-27 07:40:00,
2013-03-27 03:45:00,32.0,25.0,30.12,West,270,1.1,1.8,75,0.00,,,0.00,WUHU216HW,2013-03-27 07:45:00,
2013-03-27 03:50:00,32.0,25.0,30.12,WNW,293,1.3,1.8,75,0.00,,,0.00,WUHU216HW,2013-03-27 07:50:00,
2013-03-27 03:55:00,32.0,25.0,30.12,NW,315,0.7,2.5,75,0.00,,,0.00,WUHU216HW,2013-03-27 07:55:00,
2013-03-27 04:00:00,32.0,25.0,30.12,WNW,293,1.1,2.5,75,0.00,,,0.00,WUHU216HW,2013-03-27 08:00:00,
2013-03-27 04:05:00,31.9,24.8,30.12,West,270,1.1,2.5,75,0.00,,,0.00,WUHU216HW,2013-03-27 08:05:00,
2013-03-27 04:10:00,31.9,24.8,30.12,NW,315,0.9,2.5,75,0.00,,,0.00,WUHU216HW,2013-03-27 08:10:00,
2013-03-27 04:15:00,31.7,24.7,30.12,NW,315,1.8,1.8,75,0.00,,,0.00,WUHU216HW,2013-03-27 08:15:00,
2013-03-27 04:20:00,31.7,24.3,30.13,NW,315,0.4,1.8,74,0.00,,,0.00,WUHU216HW,2013-03-27 08:20:00,
2013-03-27 04:25:00,31.7,24.3,30.12,NW,315,1.1,1.6,74,0.00,,,0.00,WUHU216HW,2013-03-27 08:25:00,
2013-03-27 04:30:00,31.5,24.1,30.13,NW,315,0.4,1.3,74,0.00,,,0.00,WUHU216HW,2013-03-27 08:30:00,
2013-03-27 04:35:00,31.5,24.1,30.13,NW,315,0.9,1.3,74,0.00,,,0.00,WUHU216HW,2013-03-27 08:35:00,
2013-03-27 04:40:00,31.3,24.3,30.13,NW,315,1.1,1.8,75,0.00,,,0.00,WUHU216HW,2013-03-27 08:40:00,
2013-03-27 04:45:00,31.3,23.9,30.13,NW,315,0.2,1.8,74,0.00,,,0.00,WUHU216HW,2013-03-27 08:45:00,
2013-03-27 04:50:00,31.3,24.3,30.12,NW,315,0.0,1.3,75,0.00,,,0.00,WUHU216HW,2013-03-27 08:50:00,
2013-03-27 04:55:00,31.3,24.3,30.13,NW,315,0.4,2.2,75,0.00,,,0.00,WUHU216HW,2013-03-27 08:55:00,
2013-03-27 05:00:00,31.1,24.1,30.13,West,270,2.5,2.5,75,0.00,,,0.00,WUHU216HW,2013-03-27 09:00:00,
2013-03-27 05:05:00,31.1,24.1,30.13,WNW,293,0.4,2.5,75,0.00,,,0.00,WUHU216HW,2013-03-27 09:05:00,
2013-03-27 05:10:00,31.1,24.1,30.13,WNW,293,1.8,2.5,75,0.00,,,0.00,WUHU216HW,2013-03-27 09:10:00,
2013-03-27 05:15:00,31.1,23.8,30.13,SE,135,0.4,1.8,74,0.00,,,0.00,WUHU216HW,2013-03-27 09:15:00,
2013-03-27 05:20:00,31.1,23.8,30.13,WNW,293,0.4,1.8,74,0.00,,,0.00,WUHU216HW,2013-03-27 09:20:00,
2013-03-27 05:25:00,31.0,23.6,30.13,NW,315,1.8,1.8,74,0.00,,,0.00,WUHU216HW,2013-03-27 09:25:00,
2013-03-27 05:30:00,31.0,23.6,30.14,NW,315,1.1,1.8,74,0.00,,,0.00,WUHU216HW,2013-03-27 09:30:00,
2013-03-27 05:35:00,31.0,23.6,30.14,WNW,293,0.4,1.8,74,0.00,,,0.00,WUHU216HW,2013-03-27 09:35:00,
2013-03-27 05:40:00,30.8,23.4,30.13,WNW,293,0.4,1.3,74,0.00,,,0.00,WUHU216HW,2013-03-27 09:40:00,
2013-03-27 05:45:00,30.8,23.4,30.13,WNW,293,0.7,2.9,74,0.00,,,0.00,WUHU216HW,2013-03-27 09:45:00,
2013-03-27 05:50:00,30.8,23.4,30.13,NW,315,1.8,2.9,74,0.00,,,0.00,WUHU216HW,2013-03-27 09:50:00,
2013-03-27 05:55:00,30.6,23.2,30.14,NW,315,1.8,2.5,74,0.00,,,0.00,WUHU216HW,2013-03-27 09:55:00,
2013-03-27 06:00:00,30.6,23.2,30.14,NW,315,0.0,2.5,74,0.00,,,0.00,WUHU216HW,2013-03-27 10:00:00,
2013-03-27 06:05:00,30.6,23.2,30.14,NW,315,0.4,1.8,74,0.00,,,0.00,WUHU216HW,2013-03-27 10:05:00,
2013-03-27 06:10:00,30.6,23.2,30.14,WNW,293,0.4,1.6,74,0.00,,,0.00,WUHU216HW,2013-03-27 10:10:00,
2013-03-27 06:15:00,30.6,23.2,30.14,NW,315,0.4,1.8,74,0.00,,,0.00,WUHU216HW,2013-03-27 10:15:00,
2013-03-27 06:20:00,30.6,23.2,30.14,NW,315,2.0,2.0,74,0.00,,,0.00,WUHU216HW,2013-03-27 10:20:00,
2013-03-27 06:25:00,30.6,23.2,30.15,NW,315,0.2,2.0,74,0.00,,,0.00,WUHU216HW,2013-03-27 10:25:00,
2013-03-27 06:30:00,30.4,23.0,30.15,West,270,0.2,2.0,74,0.00,,,0.00,WUHU216HW,2013-03-27 10:30:00,
2013-03-27 06:35:00,30.4,23.0,30.15,NW,315,0.7,2.0,74,0.00,,,0.00,WUHU216HW,2013-03-27 10:35:00,
2013-03-27 06:40:00,30.4,23.0,30.15,NW,315,0.9,2.0,74,0.00,,,0.00,WUHU216HW,2013-03-27 10:40:00,
2013-03-27 06:45:00,30.4,23.0,30.15,NW,315,0.4,2.0,74,0.00,,,0.00,WUHU216HW,2013-03-27 10:45:00,
2013-03-27 06:50:00,30.2,22.9,30.16,WNW,293,1.1,1.1,74,0.00,,,0.00,WUHU216HW,2013-03-27 10:50:00,
2013-03-27 06:54:00,30.2,22.9,30.16,NW,315,0.4,1.8,74,0.00,,,0.00,WUHU216HW,2013-03-27 10:54:00,
2013-03-27 06:59:00,30.2,22.9,30.16,WNW,293,0.9,1.8,74,0.00,,,0.00,WUHU216HW,2013-03-27 10:59:00,
2013-03-27 07:04:00,30.2,22.9,30.16,WNW,293,1.3,1.8,74,0.00,,,0.00,WUHU216HW,2013-03-27 11:04:00,
2013-03-27 07:09:00,30.2,22.9,30.16,NW,315,1.1,2.5,74,0.00,,,0.00,WUHU216HW,2013-03-27 11:09:00,
2013-03-27 07:14:00,30.2,22.9,30.16,NNW,338,0.4,2.5,74,0.00,,,0.00,WUHU216HW,2013-03-27 11:14:00,
2013-03-27 07:19:00,30.2,22.9,30.16,NW,315,0.4,2.2,74,0.00,,,0.00,WUHU216HW,2013-03-27 11:19:00,
2013-03-27 07:24:00,30.2,22.9,30.16,WNW,293,0.4,2.2,74,0.00,,,0.00,WUHU216HW,2013-03-27 11:24:00,
2013-03-27 07:29:00,30.2,22.9,30.16,WNW,293,0.4,2.5,74,0.00,,,0.00,WUHU216HW,2013-03-27 11:29:00,
2013-03-27 07:34:00,30.2,22.9,30.16,NNW,338,0.4,3.8,74,0.00,,,0.00,WUHU216HW,2013-03-27 11:34:00,
2013-03-27 07:39:00,30.2,22.9,30.16,NW,315,2.0,3.8,74,0.00,,,0.00,WUHU216HW,2013-03-27 11:39:00,
2013-03-27 07:44:00,30.2,22.9,30.16,NW,315,0.4,3.4,74,0.00,,,0.00,WUHU216HW,2013-03-27 11:44:00,
2013-03-27 07:49:00,30.2,22.9,30.17,NW,315,1.1,2.5,74,0.00,,,0.00,WUHU216HW,2013-03-27 11:49:00,
2013-03-27 07:54:00,30.2,22.9,30.17,WSW,248,0.7,2.5,74,0.00,,,0.00,WUHU216HW,2013-03-27 11:54:00,
2013-03-27 07:59:00,30.2,23.2,30.17,NW,315,0.7,2.5,75,0.00,,,0.00,WUHU216HW,2013-03-27 11:59:00,
2013-03-27 08:04:00,30.4,23.0,30.17,WNW,293,0.4,3.1,74,0.00,,,0.00,WUHU216HW,2013-03-27 12:04:00,
2013-03-27 08:09:00,30.4,23.0,30.17,NW,315,1.3,3.1,74,0.00,,,0.00,WUHU216HW,2013-03-27 12:09:00,
2013-03-27 08:14:00,30.6,23.2,30.17,NW,315,1.8,2.7,74,0.00,,,0.00,WUHU216HW,2013-03-27 12:14:00,
2013-03-27 08:19:00,30.6,23.2,30.18,WNW,293,0.4,3.4,74,0.00,,,0.00,WUHU216HW,2013-03-27 12:19:00,
2013-03-27 08:24:00,30.8,23.4,30.18,WNW,293,1.1,5.6,74,0.00,,,0.00,WUHU216HW,2013-03-27 12:24:00,
2013-03-27 08:29:00,31.0,23.3,30.18,WNW,293,1.8,5.6,73,0.00,,,0.00,WUHU216HW,2013-03-27 12:29:00,
2013-03-27 08:34:00,31.3,23.3,30.18,North,0,1.8,3.4,72,0.00,,,0.00,WUHU216HW,2013-03-27 12:34:00,
2013-03-27 08:39:00,31.5,23.5,30.18,WNW,293,2.9,3.4,72,0.00,,,0.00,WUHU216HW,2013-03-27 12:39:00,
2013-03-27 08:44:00,31.7,23.7,30.18,WNW,293,1.3,2.9,72,0.00,,,0.00,WUHU216HW,2013-03-27 12:44:00,
2013-03-27 08:49:00,31.9,23.9,30.18,NW,315,1.1,2.5,72,0.00,,,0.00,WUHU216HW,2013-03-27 12:49:00,
2013-03-27 08:54:00,32.0,23.4,30.18,West,270,2.9,3.6,70,0.00,,,0.00,WUHU216HW,2013-03-27 12:54:00,
2013-03-27 08:59:00,32.4,23.8,30.18,WSW,248,0.7,3.6,70,0.00,,,0.00,WUHU216HW,2013-03-27 12:59:00,
2013-03-27 09:04:00,32.6,23.5,30.18,NW,315,2.7,5.6,69,0.00,,,0.00,WUHU216HW,2013-03-27 13:04:00,
2013-03-27 09:09:00,32.8,24.0,30.18,WSW,248,2.5,5.6,70,0.00,,,0.00,WUHU216HW,2013-03-27 13:09:00,
2013-03-27 09:14:00,32.9,23.9,30.19,WNW,293,2.0,4.0,69,0.00,,,0.00,WUHU216HW,2013-03-27 13:14:00,
2013-03-27 09:19:00,33.1,23.7,30.18,NW,315,3.4,4.9,68,0.00,,,0.00,WUHU216HW,2013-03-27 13:19:00,
2013-03-27 09:24:00,33.5,23.9,30.19,NNW,338,2.2,4.9,68,0.00,,,0.00,WUHU216HW,2013-03-27 13:24:00,
2013-03-27 09:29:00,33.8,23.9,30.19,West,270,1.1,4.0,67,0.00,,,0.00,WUHU216HW,2013-03-27 13:29:00,
2013-03-27 09:34:00,34.0,24.1,30.19,WNW,293,0.7,4.0,67,0.00,,,0.00,WUHU216HW,2013-03-27 13:34:00,
2013-03-27 09:39:00,34.4,24.1,30.19,WNW,293,1.8,4.7,66,0.00,,,0.00,WUHU216HW,2013-03-27 13:39:00,
2013-03-27 09:44:00,34.6,23.9,30.19,West,270,3.4,4.7,65,0.00,,,0.00,WUHU216HW,2013-03-27 13:44:00,
2013-03-27 09:49:00,34.9,23.9,30.19,West,270,3.8,4.5,64,0.00,,,0.00,WUHU216HW,2013-03-27 13:49:00,
2013-03-27 09:54:00,35.1,24.1,30.19,West,270,1.8,3.8,64,0.00,,,0.00,WUHU216HW,2013-03-27 13:54:00,
2013-03-27 09:59:00,35.5,24.1,30.19,NW,315,3.4,3.8,63,0.00,,,0.00,WUHU216HW,2013-03-27 13:59:00,
2013-03-27 10:04:00,35.6,24.3,30.19,NW,315,1.8,5.8,63,0.00,,,0.00,WUHU216HW,2013-03-27 14:04:00,
2013-03-27 10:09:00,36.0,24.3,30.19,SW,225,2.5,5.8,62,0.00,,,0.00,WUHU216HW,2013-03-27 14:09:00,
2013-03-27 10:14:00,36.2,24.5,30.19,NW,315,1.8,4.0,62,0.00,,,0.00,WUHU216HW,2013-03-27 14:14:00,
2013-03-27 10:19:00,36.2,23.7,30.18,WNW,293,3.4,4.5,60,0.00,,,0.00,WUHU216HW,2013-03-27 14:19:00,
2013-03-27 10:24:00,36.4,23.9,30.18,West,270,2.9,5.1,60,0.00,,,0.00,WUHU216HW,2013-03-27 14:24:00,
2013-03-27 10:29:00,36.9,24.4,30.19,NW,315,3.1,5.1,60,0.00,,,0.00,WUHU216HW,2013-03-27 14:29:00,
2013-03-27 10:34:00,37.1,23.7,30.18,WNW,293,2.5,5.8,58,0.00,,,0.00,WUHU216HW,2013-03-27 14:34:00,
2013-03-27 10:39:00,37.4,23.9,30.19,WNW,293,1.3,5.8,58,0.00,,,0.00,WUHU216HW,2013-03-27 14:39:00,
2013-03-27 10:44:00,37.6,24.1,30.18,NNW,338,1.1,4.7,58,0.00,,,0.00,WUHU216HW,2013-03-27 14:44:00,
2013-03-27 10:49:00,38.0,24.0,30.19,NW,315,2.7,4.0,57,0.00,,,0.00,WUHU216HW,2013-03-27 14:49:00,
2013-03-27 10:54:00,38.2,23.8,30.18,West,270,1.8,5.8,56,0.00,,,0.00,WUHU216HW,2013-03-27 14:54:00,
2013-03-27 10:59:00,38.5,23.7,30.19,West,270,1.1,5.8,55,0.00,,,0.00,WUHU216HW,2013-03-27 14:59:00,
2013-03-27 11:04:00,38.9,23.9,30.18,WSW,248,2.5,3.8,55,0.00,,,0.00,WUHU216HW,2013-03-27 15:04:00,
2013-03-27 11:09:00,39.2,23.9,30.19,NNW,338,1.6,4.7,54,0.00,,,0.00,WUHU216HW,2013-03-27 15:09:00,
2013-03-27 11:14:00,39.4,24.0,30.19,West,270,2.2,4.7,54,0.00,,,0.00,WUHU216HW,2013-03-27 15:14:00,
2013-03-27 11:19:00,39.4,23.6,30.19,WNW,293,3.4,5.8,53,0.00,,,0.00,WUHU216HW,2013-03-27 15:19:00,
2013-03-27 11:24:00,39.8,24.0,30.19,WSW,248,1.3,6.7,53,0.00,,,0.00,WUHU216HW,2013-03-27 15:24:00,
2013-03-27 11:29:00,40.0,24.1,30.19,NW,315,3.4,6.7,53,0.00,,,0.00,WUHU216HW,2013-03-27 15:29:00,
2013-03-27 11:34:00,40.3,24.0,30.19,WNW,293,3.8,4.5,52,0.00,,,0.00,WUHU216HW,2013-03-27 15:34:00,
2013-03-27 11:39:00,40.5,24.1,30.19,NNW,338,1.3,4.9,52,0.00,,,0.00,WUHU216HW,2013-03-27 15:39:00,
2013-03-27 11:44:00,40.7,23.9,30.19,WNW,293,1.3,4.9,51,0.00,,,0.00,WUHU216HW,2013-03-27 15:44:00,
2013-03-27 11:49:00,41.0,24.2,30.19,West,270,2.7,3.8,51,0.00,,,0.00,WUHU216HW,2013-03-27 15:49:00,
2013-03-27 11:54:00,41.4,24.6,30.19,West,270,1.1,4.3,51,0.00,,,0.00,WUHU216HW,2013-03-27 15:54:00,
2013-03-27 11:59:00,41.8,24.5,30.19,NW,315,3.8,4.3,50,0.00,,,0.00,WUHU216HW,2013-03-27 15:59:00,
2013-03-27 12:04:00,41.9,24.7,30.19,WNW,293,1.8,4.3,50,0.00,,,0.00,WUHU216HW,2013-03-27 16:04:00,
2013-03-27 12:09:00,42.1,24.3,30.19,WSW,248,4.0,4.7,49,0.00,,,0.00,WUHU216HW,2013-03-27 16:09:00,
2013-03-27 12:14:00,41.9,24.1,30.19,WSW,248,2.5,5.1,49,0.00,,,0.00,WUHU216HW,2013-03-27 16:14:00,
2013-03-27 12:19:00,42.1,24.8,30.19,NW,315,1.8,5.1,50,0.00,,,0.00,WUHU216HW,2013-03-27 16:19:00,
2013-03-27 12:24:00,42.7,25.4,30.19,WNW,293,2.5,4.7,50,0.00,,,0.00,WUHU216HW,2013-03-27 16:24:00,
2013-03-27 12:29:00,42.7,24.8,30.19,NW,315,2.5,5.4,49,0.00,,,0.00,WUHU216HW,2013-03-27 16:29:00,
2013-03-27 12:34:00,43.0,25.2,30.19,WNW,293,4.5,5.4,49,0.00,,,0.00,WUHU216HW,2013-03-27 16:34:00,
2013-03-27 12:39:00,43.0,25.2,30.19,WNW,293,3.4,4.7,49,0.00,,,0.00,WUHU216HW,2013-03-27 16:39:00,
2013-03-27 12:44:00,43.6,25.1,30.19,NW,315,2.9,4.7,48,0.00,,,0.00,WUHU216HW,2013-03-27 16:44:00,
2013-03-27 12:49:00,43.6,24.6,30.19,WNW,293,3.1,4.7,47,0.00,,,0.00,WUHU216HW,2013-03-27 16:49:00,
2013-03-27 12:54:00,43.7,24.8,30.19,WNW,293,2.5,4.7,47,0.00,,,0.00,WUHU216HW,2013-03-27 16:54:00,
2013-03-27 12:59:00,43.7,24.8,30.19,WSW,248,1.8,4.5,47,0.00,,,0.00,WUHU216HW,2013-03-27 16:59:00,
2013-03-27 13:04:00,43.4,24.9,30.19,NE,45,1.3,4.5,48,0.00,,,0.00,WUHU216HW,2013-03-27 17:04:00,
2013-03-27 13:09:00,43.9,25.5,30.19,NW,315,2.2,5.4,48,0.00,,,0.00,WUHU216HW,2013-03-27 17:09:00,
2013-03-27 13:14:00,44.1,25.7,30.19,NW,315,1.8,5.4,48,0.00,,,0.00,WUHU216HW,2013-03-27 17:14:00,
2013-03-27 13:19:00,44.3,25.2,30.19,NW,315,1.8,4.9,47,0.00,,,0.00,WUHU216HW,2013-03-27 17:19:00,
2013-03-27 13:24:00,44.3,25.2,30.19,West,270,3.4,4.9,47,0.00,,,0.00,WUHU216HW,2013-03-27 17:24:00,
2013-03-27 13:29:00,44.1,25.1,30.19,West,270,1.6,4.0,47,0.00,,,0.00,WUHU216HW,2013-03-27 17:29:00,
2013-03-27 13:34:00,44.3,25.7,30.18,NNW,338,2.7,4.0,48,0.00,,,0.00,WUHU216HW,2013-03-27 17:34:00,
2013-03-27 13:39:00,44.8,25.8,30.18,NW,315,2.2,5.1,47,0.00,,,0.00,WUHU216HW,2013-03-27 17:39:00,
2013-03-27 13:44:00,45.4,25.7,30.18,WNW,293,3.1,5.1,46,0.00,,,0.00,WUHU216HW,2013-03-27 17:44:00,
2013-03-27 13:49:00,45.7,25.5,30.18,NW,315,1.8,6.3,45,0.00,,,0.00,WUHU216HW,2013-03-27 17:49:00,
2013-03-27 13:54:00,46.1,25.7,30.18,NW,315,2.2,6.3,45,0.00,,,0.00,WUHU216HW,2013-03-27 17:54:00,
2013-03-27 13:59:00,45.7,24.9,30.18,NW,315,2.5,4.7,44,0.00,,,0.00,WUHU216HW,2013-03-27 17:59:00,
2013-03-27 14:04:00,45.7,24.9,30.18,West,270,2.5,6.3,44,0.00,,,0.00,WUHU216HW,2013-03-27 18:04:00,
2013-03-27 14:09:00,45.5,25.3,30.18,NW,315,2.9,6.3,45,0.00,,,0.00,WUHU216HW,2013-03-27 18:09:00,
2013-03-27 14:14:00,46.4,26.1,30.18,WNW,293,2.5,4.5,45,0.00,,,0.00,WUHU216HW,2013-03-27 18:14:00,
2013-03-27 14:19:00,46.8,25.4,30.17,NNW,338,2.7,4.7,43,0.00,,,0.00,WUHU216HW,2013-03-27 18:19:00,
2013-03-27 14:24:00,46.1,24.7,30.17,NW,315,0.7,6.9,43,0.00,,,0.00,WUHU216HW,2013-03-27 18:24:00,
2013-03-27 14:29:00,45.9,24.6,30.17,NNW,338,3.1,6.9,43,0.00,,,0.00,WUHU216HW,2013-03-27 18:29:00,
2013-03-27 14:34:00,45.7,24.4,30.17,West,270,4.5,4.7,43,0.00,,,0.00,WUHU216HW,2013-03-27 18:34:00,
2013-03-27 14:39:00,45.9,25.7,30.16,NW,315,1.8,4.5,45,0.00,,,0.00,WUHU216HW,2013-03-27 18:39:00,
2013-03-27 14:44:00,46.4,26.1,30.16,WSW,248,2.7,4.7,45,0.00,,,0.00,WUHU216HW,2013-03-27 18:44:00,
2013-03-27 14:49:00,47.2,26.2,30.17,West,270,3.6,5.4,44,0.00,,,0.00,WUHU216HW,2013-03-27 18:49:00,
2013-03-27 14:54:00,47.2,25.7,30.16,NNW,338,2.7,5.4,43,0.00,,,0.00,WUHU216HW,2013-03-27 18:54:00,
2013-03-27 14:59:00,46.4,25.6,30.16,West,270,3.6,4.9,44,0.00,,,0.00,WUHU216HW,2013-03-27 18:59:00,
2013-03-27 15:04:00,46.8,26.5,30.16,West,270,1.1,4.0,45,0.00,,,0.00,WUHU216HW,2013-03-27 19:04:00,
2013-03-27 15:09:00,47.0,25.5,30.16,WNW,293,3.6,4.3,43,0.00,,,0.00,WUHU216HW,2013-03-27 19:09:00,
2013-03-27 15:14:00,46.4,25.6,30.17,WNW,293,3.8,6.0,44,0.00,,,0.00,WUHU216HW,2013-03-27 19:14:00,
2013-03-27 15:19:00,45.7,24.9,30.17,WNW,293,2.2,6.0,44,0.00,,,0.00,WUHU216HW,2013-03-27 19:19:00,
2013-03-27 15:24:00,45.5,25.3,30.16,West,270,2.9,3.8,45,0.00,,,0.00,WUHU216HW,2013-03-27 19:24:00,
2013-03-27 15:29:00,45.4,25.1,30.16,NNW,338,3.6,4.0,45,0.00,,,0.00,WUHU216HW,2013-03-27 19:29:00,
2013-03-27 15:34:00,45.4,25.1,30.17,NW,315,2.5,4.0,45,0.00,,,0.00,WUHU216HW,2013-03-27 19:34:00,
2013-03-27 15:39:00,45.4,25.1,30.17,WSW,248,2.0,3.4,45,0.00,,,0.00,WUHU216HW,2013-03-27 19:39:00,
2013-03-27 15:44:00,45.4,25.7,30.17,North,0,1.8,3.4,46,0.00,,,0.00,WUHU216HW,2013-03-27 19:44:00,
2013-03-27 15:49:00,45.5,25.3,30.17,NW,315,3.4,3.4,45,0.00,,,0.00,WUHU216HW,2013-03-27 19:49:00,
2013-03-27 15:54:00,45.4,25.1,30.16,WSW,248,3.6,4.7,45,0.00,,,0.00,WUHU216HW,2013-03-27 19:54:00,
2013-03-27 15:59:00,45.2,24.9,30.16,WNW,293,1.3,4.7,45,0.00,,,0.00,WUHU216HW,2013-03-27 19:59:00,
2013-03-27 16:04:00,45.0,25.4,30.16,NW,315,1.8,4.7,46,0.00,,,0.00,WUHU216HW,2013-03-27 20:04:00,
2013-03-27 16:09:00,45.0,25.9,30.16,NW,315,2.0,4.3,47,0.00,,,0.00,WUHU216HW,2013-03-27 20:09:00,
2013-03-27 16:14:00,45.0,25.9,30.16,West,270,0.7,3.1,47,0.00,,,0.00,WUHU216HW,2013-03-27 20:14:00,
2013-03-27 16:19:00,45.2,26.0,30.16,WSW,248,2.5,3.1,47,0.00,,,0.00,WUHU216HW,2013-03-27 20:19:00,
2013-03-27 16:24:00,45.0,25.4,30.16,West,270,2.5,4.0,46,0.00,,,0.00,WUHU216HW,2013-03-27 20:24:00,
2013-03-27 16:29:00,45.0,25.9,30.16,West,270,1.1,4.0,47,0.00,,,0.00,WUHU216HW,2013-03-27 20:29:00,
2013-03-27 16:34:00,45.0,25.4,30.16,WSW,248,2.0,4.0,46,0.00,,,0.00,WUHU216HW,2013-03-27 20:34:00,
2013-03-27 16:39:00,45.2,25.5,30.16,NNW,338,2.9,4.3,46,0.00,,,0.00,WUHU216HW,2013-03-27 20:39:00,
2013-03-27 16:44:00,45.4,25.7,30.16,NW,315,1.1,4.3,46,0.00,,,0.00,WUHU216HW,2013-03-27 20:44:00,
2013-03-27 16:49:00,45.0,25.4,30.16,NW,315,2.2,3.8,46,0.00,,,0.00,WUHU216HW,2013-03-27 20:49:00,
2013-03-27 16:54:00,45.0,25.9,30.16,WSW,248,2.0,4.3,47,0.00,,,0.00,WUHU216HW,2013-03-27 20:54:00,
2013-03-27 16:59:00,45.0,25.4,30.16,NNW,338,1.1,5.1,46,0.00,,,0.00,WUHU216HW,2013-03-27 20:59:00,
2013-03-27 17:04:00,45.0,25.9,30.16,WNW,293,2.2,5.1,47,0.00,,,0.00,WUHU216HW,2013-03-27 21:04:00,
2013-03-27 17:09:00,45.2,26.0,30.16,WNW,293,2.5,4.0,47,0.00,,,0.00,WUHU216HW,2013-03-27 21:09:00,
2013-03-27 17:14:00,45.5,26.4,30.16,WNW,293,2.0,3.8,47,0.00,,,0.00,WUHU216HW,2013-03-27 21:14:00,
2013-03-27 17:19:00,45.7,26.0,30.16,NNW,338,2.7,4.0,46,0.00,,,0.00,WUHU216HW,2013-03-27 21:19:00,
2013-03-27 17:24:00,46.1,26.3,30.16,NW,315,1.1,4.3,46,0.00,,,0.00,WUHU216HW,2013-03-27 21:24:00,
2013-03-27 17:29:00,46.3,26.5,30.16,WNW,293,1.8,4.3,46,0.00,,,0.00,WUHU216HW,2013-03-27 21:29:00,
2013-03-27 17:34:00,45.9,26.2,30.16,NNW,338,1.1,4.3,46,0.00,,,0.00,WUHU216HW,2013-03-27 21:34:00,
2013-03-27 17:39:00,45.4,26.2,30.16,WNW,293,1.1,3.8,47,0.00,,,0.00,WUHU216HW,2013-03-27 21:39:00,
2013-03-27 17:44:00,45.2,26.0,30.16,WNW,293,0.7,3.4,47,0.00,,,0.00,WUHU216HW,2013-03-27 21:44:00,
2013-03-27 17:49:00,45.0,25.9,30.16,WNW,293,3.6,4.3,47,0.00,,,0.00,WUHU216HW,2013-03-27 21:49:00,
2013-03-27 17:54:00,44.6,25.6,30.16,WNW,293,2.5,4.7,47,0.00,,,0.00,WUHU216HW,2013-03-27 21:54:00,
2013-03-27 17:59:00,44.6,26.1,30.16,WNW,293,1.6,4.7,48,0.00,,,0.00,WUHU216HW,2013-03-27 21:59:00,
2013-03-27 18:04:00,44.5,25.9,30.17,NNW,338,1.1,3.6,48,0.00,,,0.00,WUHU216HW,2013-03-27 22:04:00,
2013-03-27 18:09:00,44.5,25.9,30.17,WNW,293,1.8,3.4,48,0.00,,,0.00,WUHU216HW,2013-03-27 22:09:00,
2013-03-27 18:14:00,44.3,25.7,30.17,North,0,1.6,4.0,48,0.00,,,0.00,WUHU216HW,2013-03-27 22:14:00,
2013-03-27 18:19:00,44.3,26.3,30.17,WNW,293,1.8,4.0,49,0.00,,,0.00,WUHU216HW,2013-03-27 22:19:00,
2013-03-27 18:24:00,44.1,26.2,30.17,NW,315,2.5,3.4,49,0.00,,,0.00,WUHU216HW,2013-03-27 22:24:00,
2013-03-27 18:29:00,43.9,26.0,30.17,NW,315,2.5,3.4,49,0.00,,,0.00,WUHU216HW,2013-03-27 22:29:00,
2013-03-27 18:34:00,43.7,25.8,30.17,NW,315,1.3,3.4,49,0.00,,,0.00,WUHU216HW,2013-03-27 22:34:00,
2013-03-27 18:39:00,43.6,25.7,30.17,NNW,338,0.9,3.4,49,0.00,,,0.00,WUHU216HW,2013-03-27 22:39:00,
2013-03-27 18:44:00,43.6,25.7,30.17,NW,315,1.3,3.4,49,0.00,,,0.00,WUHU216HW,2013-03-27 22:44:00,
2013-03-27 18:49:00,43.4,26.0,30.18,WNW,293,0.9,3.4,50,0.00,,,0.00,WUHU216HW,2013-03-27 22:49:00,
2013-03-27 18:54:00,43.4,26.0,30.18,WNW,293,2.2,3.4,50,0.00,,,0.00,WUHU216HW,2013-03-27 22:54:00,
2013-03-27 18:59:00,43.2,25.9,30.18,NW,315,2.7,3.4,50,0.00,,,0.00,WUHU216HW,2013-03-27 22:59:00,
2013-03-27 19:04:00,43.0,25.8,30.18,NW,315,4.0,4.0,50,0.00,,,0.00,WUHU216HW,2013-03-27 23:04:00,
2013-03-27 19:09:00,43.0,26.2,30.18,NW,315,1.3,4.0,51,0.00,,,0.00,WUHU216HW,2013-03-27 23:09:00,
2013-03-27 19:14:00,42.8,26.0,30.18,NW,315,1.1,4.0,51,0.00,,,0.00,WUHU216HW,2013-03-27 23:14:00,
2013-03-27 19:19:00,42.8,26.0,30.18,NW,315,1.1,4.0,51,0.00,,,0.00,WUHU216HW,2013-03-27 23:19:00,
2013-03-27 19:24:00,42.7,25.8,30.18,NW,315,1.8,3.6,51,0.00,,,0.00,WUHU216HW,2013-03-27 23:24:00,
2013-03-27 19:29:00,42.5,26.1,30.19,NW,315,0.4,3.6,52,0.00,,,0.00,WUHU216HW,2013-03-27 23:29:00,
2013-03-27 19:34:00,42.5,26.1,30.19,NW,315,1.3,3.6,52,0.00,,,0.00,WUHU216HW,2013-03-27 23:34:00,
2013-03-27 19:39:00,42.3,25.5,30.19,NW,315,1.3,3.4,51,0.00,,,0.00,WUHU216HW,2013-03-27 23:39:00,
2013-03-27 19:44:00,42.1,25.3,30.19,NW,315,1.1,2.7,51,0.00,,,0.00,WUHU216HW,2013-03-27 23:44:00,
2013-03-27 19:49:00,41.9,25.6,30.19,NW,315,0.4,2.5,52,0.00,,,0.00,WUHU216HW,2013-03-27 23:49:00,
2013-03-27 19:54:00,41.8,25.4,30.19,NW,315,1.6,3.1,52,0.00,,,0.00,WUHU216HW,2013-03-27 23:54:00,
2013-03-27 19:59:00,41.4,25.0,30.19,NW,315,0.7,3.1,52,0.00,,,0.00,WUHU216HW,2013-03-27 23:59:00,
2013-03-27 20:04:00,41.4,25.0,30.19,West,270,1.3,3.8,52,0.00,,,0.00,WUHU216HW,2013-03-28 00:04:00,
2013-03-27 20:09:00,41.2,25.3,30.19,NW,315,0.9,3.8,53,0.00,,,0.00,WUHU216HW,2013-03-28 00:09:00,
2013-03-27 20:14:00,41.0,25.1,30.19,WNW,293,2.0,3.1,53,0.00,,,0.00,WUHU216HW,2013-03-28 00:14:00,
2013-03-27 20:19:00,40.9,24.9,30.19,NW,315,0.9,3.8,53,0.00,,,0.00,WUHU216HW,2013-03-28 00:19:00,
2013-03-27 20:24:00,40.7,25.2,30.19,NW,315,0.9,3.8,54,0.00,,,0.00,WUHU216HW,2013-03-28 00:24:00,
2013-03-27 20:29:00,40.5,25.0,30.19,SSE,158,0.7,2.0,54,0.00,,,0.00,WUHU216HW,2013-03-28 00:29:00,
2013-03-27 20:34:00,40.1,24.8,30.19,NNW,338,2.2,3.4,54,0.00,,,0.00,WUHU216HW,2013-03-28 00:34:00,
2013-03-27 20:39:00,40.0,24.6,30.19,NW,315,0.4,3.4,54,0.00,,,0.00,WUHU216HW,2013-03-28 00:39:00,
2013-03-27 20:44:00,39.8,24.4,30.19,WNW,293,2.0,2.9,54,0.00,,,0.00,WUHU216HW,2013-03-28 00:44:00,
2013-03-27 20:49:00,39.6,24.7,30.20,NW,315,1.8,2.5,55,0.00,,,0.00,WUHU216HW,2013-03-28 00:49:00,
2013-03-27 20:54:00,39.4,24.5,30.20,NW,315,1.1,2.5,55,0.00,,,0.00,WUHU216HW,2013-03-28 00:54:00,
2013-03-27 20:59:00,39.2,24.3,30.20,WNW,293,1.8,4.0,55,0.00,,,0.00,WUHU216HW,2013-03-28 00:59:00,
2013-03-27 21:04:00,39.2,24.3,30.20,WNW,293,0.7,4.0,55,0.00,,,0.00,WUHU216HW,2013-03-28 01:04:00,
2013-03-27 21:09:00,39.1,24.1,30.20,NNW,338,0.9,2.7,55,0.00,,,0.00,WUHU216HW,2013-03-28 01:09:00,
2013-03-27 21:14:00,38.9,23.9,30.20,NW,315,2.2,2.5,55,0.00,,,0.00,WUHU216HW,2013-03-28 01:14:00,
2013-03-27 21:18:00,38.7,24.2,30.20,NNW,338,1.3,3.6,56,0.00,,,0.00,WUHU216HW,2013-03-28 01:18:00,
2013-03-27 21:23:00,38.5,24.1,30.21,WNW,293,1.1,3.6,56,0.00,,,0.00,WUHU216HW,2013-03-28 01:23:00,
2013-03-27 21:28:00,38.5,24.1,30.21,NNW,338,2.2,3.4,56,0.00,,,0.00,WUHU216HW,2013-03-28 01:28:00,
2013-03-27 21:33:00,38.5,24.1,30.21,NW,315,1.8,2.9,56,0.00,,,0.00,WUHU216HW,2013-03-28 01:33:00,
2013-03-27 21:38:00,38.3,24.0,30.21,NNW,338,0.7,2.5,56,0.00,,,0.00,WUHU216HW,2013-03-28 01:38:00,
2013-03-27 21:43:00,38.2,23.8,30.21,West,270,3.4,3.4,56,0.00,,,0.00,WUHU216HW,2013-03-28 01:43:00,
2013-03-27 21:48:00,38.0,23.6,30.22,WNW,293,0.9,3.4,56,0.00,,,0.00,WUHU216HW,2013-03-28 01:48:00,
2013-03-27 21:53:00,37.8,23.4,30.22,NW,315,1.8,3.4,56,0.00,,,0.00,WUHU216HW,2013-03-28 01:53:00,
2013-03-27 21:58:00,37.8,23.4,30.22,NW,315,0.9,3.4,56,0.00,,,0.00,WUHU216HW,2013-03-28 01:58:00,
2013-03-27 22:03:00,37.6,23.3,30.22,NW,315,1.1,3.4,56,0.00,,,0.00,WUHU216HW,2013-03-28 02:03:00,
2013-03-27 22:08:00,37.4,23.1,30.22,North,0,2.2,2.5,56,0.00,,,0.00,WUHU216HW,2013-03-28 02:08:00,
2013-03-27 22:13:00,37.3,23.0,30.22,NW,315,1.8,2.2,56,0.00,,,0.00,WUHU216HW,2013-03-28 02:13:00,
2013-03-27 22:18:00,37.1,23.2,30.22,NW,315,1.8,2.5,57,0.00,,,0.00,WUHU216HW,2013-03-28 02:18:00,
2013-03-27 22:23:00,37.1,23.2,30.22,NW,315,0.9,3.4,57,0.00,,,0.00,WUHU216HW,2013-03-28 02:23:00,
2013-03-27 22:28:00,37.1,23.2,30.22,NW,315,2.2,3.4,57,0.00,,,0.00,WUHU216HW,2013-03-28 02:28:00,
2013-03-27 22:33:00,36.9,23.0,30.23,WNW,293,0.9,2.5,57,0.00,,,0.00,WUHU216HW,2013-03-28 02:33:00,
2013-03-27 22:38:00,36.7,22.9,30.22,NW,315,1.1,2.2,57,0.00,,,0.00,WUHU216HW,2013-03-28 02:38:00,
2013-03-27 22:43:00,36.5,22.8,30.22,NW,315,1.8,3.1,57,0.00,,,0.00,WUHU216HW,2013-03-28 02:43:00,
2013-03-27 22:48:00,36.4,22.6,30.22,NW,315,2.0,3.1,57,0.00,,,0.00,WUHU216HW,2013-03-28 02:48:00,
2013-03-27 22:53:00,36.4,22.6,30.22,West,270,1.3,2.9,57,0.00,,,0.00,WUHU216HW,2013-03-28 02:53:00,
2013-03-27 22:58:00,36.2,22.4,30.22,NNW,338,0.9,2.9,57,0.00,,,0.00,WUHU216HW,2013-03-28 02:58:00,
2013-03-27 23:03:00,36.0,22.2,30.22,WNW,293,1.1,2.9,57,0.00,,,0.00,WUHU216HW,2013-03-28 03:03:00,
2013-03-27 23:08:00,35.8,22.5,30.22,NW,315,2.5,2.9,58,0.00,,,0.00,WUHU216HW,2013-03-28 03:08:00,
2013-03-27 23:13:00,35.6,22.3,30.22,NW,315,1.1,2.5,58,0.00,,,0.00,WUHU216HW,2013-03-28 03:13:00,
2013-03-27 23:18:00,35.6,22.3,30.22,WNW,293,0.7,2.5,58,0.00,,,0.00,WUHU216HW,2013-03-28 03:18:00,
2013-03-27 23:23:00,35.5,22.1,30.22,NW,315,1.3,3.4,58,0.00,,,0.00,WUHU216HW,2013-03-28 03:23:00,
2013-03-27 23:28:00,35.5,22.1,30.22,WNW,293,1.1,3.4,58,0.00,,,0.00,WUHU216HW,2013-03-28 03:28:00,
2013-03-27 23:33:00,35.3,22.0,30.22,WNW,293,1.6,2.2,58,0.00,,,0.00,WUHU216HW,2013-03-28 03:33:00,
2013-03-27 23:38:00,35.3,22.4,30.22,NW,315,1.3,2.2,59,0.00,,,0.00,WUHU216HW,2013-03-28 03:38:00,
2013-03-27 23:43:00,35.3,22.4,30.22,NW,315,1.8,2.7,59,0.00,,,0.00,WUHU216HW,2013-03-28 03:43:00,
2013-03-27 23:48:00,35.1,22.2,30.22,WSW,248,0.7,2.7,59,0.00,,,0.00,WUHU216HW,2013-03-28 03:48:00,
2013-03-27 23:53:00,34.9,22.1,30.22,NW,315,0.9,1.8,59,0.00,,,0.00,WUHU216HW,2013-03-28 03:53:00,
2013-03-27 23:58:00,34.9,21.6,30.22,NNW,338,1.1,2.0,58,0.00,,,0.00,WUHU216HW,2013-03-28 03:58:00,